Location: *
(42.0175°N, 9.4056°E)
Time: 14:42:20
(UTC+00:00)

Cosmos 2369 - Pass Details

Date: 25 August 2019
Orbit: 841 x 854 km, 71.0° (Epoch: 18 September)

Event Time Altitude Azimuth Distance (km) Brightness Sun altitude
Rises 20:22:59 0° 332° (NNW) 3,405 8.0 -22.9°
Reaches altitude 10° 20:25:27 10° 329° (NNW) 2,466 7.1 -23.3°
Maximum altitude 20:31:02 62° 250° (WSW) 944 4.0 -24.0°
Enters shadow 20:32:45 42° 191° (S) 1,180 4.2 -24.3°
